STARLINK-11482 [DTC] (62520 NORAD) Tracking and Keplerian Element Data

This shows tracking and keplerian element data for the satellite.

Feedback or suggestion? Click here.




ElementValue
Catalog62520
NameSTARLINK-11482 [DTC]
Epoch Orbit541
Epoch Day34.83335648
Epoch Year2025
RAAN315.6443
Inclination42.9983
Eccentricity0.0001679
Argument of Perigee261.9598
Mean Anonmoly352.5561
Mean Motion15.77840241
Decay Rate0.00030177
L11 62520U 25004K 25034.83335648 .00030177 00000+0 17578-3 0 9998
L22 62520 42.9983 315.6443 0001679 261.9598 352.5561 15.77840241 5417



Live tracking and technical data element details for STARLINK-11482 [DTC] (NORAD 62520). STARLINK-11482 [DTC] can be tracked NOW for your location showing map with azimuth and elevation plus other details from your city location.







IsCatalogInMostPopularTable: catalog: 62520, numindb: 21
Update: records affected: 1



GetName: 62520 STARLINK-11482 [DTC]

Hit Count: updated at: Mon, 19 May 2025 01:46:09 GMT